Asheville, NC

9:07 PM EDT on May 27, 2017 (GMT -0400)
Asheville Regional

Weather History for KAVL - December, 2010

Change the Weather History Date:

Wednesday, December 22, 2010

  Actual Average Record
Temperature  
Mean Temperature 40 °F 38 °F  
Max Temperature 49 °F 48 °F 71 °F (1970)
Min Temperature 31 °F 28 °F 4 °F (1989)
Degree Days  
Heating Degree Days 25 27  
Month to date heating degree days 751 547  
Since 1 July heating degree days 1562 1414  
Cooling Degree Days 0 0  
Month to date cooling degree days 0 0  
Year to date cooling degree days 1212 863  
Moisture  
Dew Point 35 °F    
Average Humidity 76    
Maximum Humidity 96    
Minimum Humidity 56    
Precipitation  
Precipitation 0.01 in 0.10 in 2.80 in (2013)
Month to date precipitation 0.60 2.64  
Year to date precipitation 43.60 44.62  
Snow  
Snow 0.00 in 0.00 in 2.00 in (1929)
Month to date snowfall 3.8 0.4  
Since 1 July snowfall 3.8 0.5  
Snow Depth 0.00 in    
Sea Level Pressure  
Sea Level Pressure 29.96 in    
Wind  
Wind Speed 12 mph (NNW)    
Max Wind Speed 32 mph    
Max Gust Speed 41 mph    
Visibility 9 miles    
Events Rain    
T = Trace of Precipitation, MM = Missing Value Source: NWS Daily Summary

Daily Weather History Graph

Daily Weather History Graph

Search for Another Location

Airport or City:

Trip Planner

Search our weather history database for the weather conditions in past years. The results will help you decide how hot, cold, wet, or windy it might be!

Date:

Astronomy

Dec. 22, 2010 Rise Set
Actual Time 7:35 AM EST 5:21 PM EST
Civil Twilight 7:07 AM EST 5:50 PM EST
Nautical Twilight 6:35 AM EST 6:21 PM EST
Astronomical Twilight 6:04 AM EST 6:53 PM EST
Moon 7:01 PM EST (12/22) 8:39 AM EST (12/22)
Length of Visible Light 10h 42m
Length of Day
9h 45m
Full, 98% of the Moon is Illuminated
Dec 22
Full
Dec 27
Last Quarter
Jan 4
New
Jan 12
First Quarter
Jan 19
Full

Hourly Weather History & Observations

Time (EST) Temp. Windchill Dew Point Humidity Pressure Visibility Wind Dir Wind Speed Gust Speed Precip Events Conditions
12:54 AM 39.0 °F 36.8 °F 35.1 °F 86% 29.96 in 10.0 mi NW 3.5 mph - N/A   Overcast
1:54 AM 39.0 °F 36.8 °F 36.0 °F 89% 29.94 in 10.0 mi North 3.5 mph - N/A   Overcast
2:54 AM 39.0 °F 33.4 °F 36.0 °F 89% 29.93 in 10.0 mi NNW 8.1 mph - N/A   Overcast
3:54 AM 39.0 °F 35.7 °F 37.0 °F 93% 29.92 in 10.0 mi NNW 4.6 mph - N/A   Overcast
4:16 AM 39.2 °F 35.0 °F 37.4 °F 93% 29.91 in 10.0 mi NNW 5.8 mph - N/A   Overcast
4:29 AM 39.2 °F 35.9 °F 37.4 °F 93% 29.91 in 10.0 mi NNW 4.6 mph - N/A   Overcast
4:54 AM 39.0 °F 36.8 °F 37.0 °F 93% 29.91 in 10.0 mi WSW 3.5 mph - N/A   Overcast
5:54 AM 39.9 °F 36.7 °F 37.0 °F 89% 29.91 in 10.0 mi North 4.6 mph - N/A   Overcast
6:07 AM 39.2 °F 35.0 °F 37.4 °F 93% 29.89 in 10.0 mi North 5.8 mph - N/A   Overcast
6:54 AM 39.9 °F 35.8 °F 37.0 °F 89% 29.92 in 9.0 mi NW 5.8 mph - N/A   Overcast
7:54 AM 39.9 °F 35.8 °F 37.9 °F 93% 29.92 in 5.0 mi NNW 5.8 mph - N/A   Overcast
8:07 AM 39.2 °F 33.0 °F 37.4 °F 93% 29.92 in 4.0 mi NNW 9.2 mph - N/A   Overcast
8:54 AM 42.1 °F 34.9 °F 41.0 °F 96% 29.93 in 6.0 mi NNW 13.8 mph - 0.01 in   Overcast
9:01 AM 42.8 °F 35.8 °F 41.0 °F 93% 29.93 in 7.0 mi NNW 13.8 mph 19.6 mph 0.00 in Rain Light Rain
9:54 AM 44.1 °F 37.7 °F 41.0 °F 89% 29.95 in 10.0 mi NNW 12.7 mph - 0.00 in   Overcast
10:22 AM 44.6 °F 37.8 °F 42.8 °F 93% 29.95 in 10.0 mi NNW 15.0 mph - N/A   Overcast
10:54 AM 46.9 °F - 42.1 °F 83% 29.95 in 10.0 mi North 11.5 mph 21.9 mph N/A   Overcast
11:54 AM 46.9 °F - 41.0 °F 80% 29.94 in 10.0 mi NNW 15.0 mph - N/A   Overcast
12:08 PM 48.2 °F - 39.2 °F 71% 29.94 in 10.0 mi NNW 16.1 mph - N/A   Overcast
12:25 PM 46.4 °F 40.1 °F 39.2 °F 76% 29.93 in 10.0 mi North 15.0 mph - N/A   Mostly Cloudy
12:54 PM 48.0 °F - 39.9 °F 74% 29.92 in 10.0 mi North 11.5 mph 19.6 mph N/A   Scattered Clouds
1:54 PM 48.0 °F - 37.9 °F 68% 29.91 in 10.0 mi North 16.1 mph 26.5 mph N/A   Partly Cloudy
2:54 PM 46.9 °F - 35.1 °F 63% 29.93 in 10.0 mi North 11.5 mph 20.7 mph N/A   Clear
3:54 PM 48.2 °F - 33.8 °F 58% 29.93 in 10.0 mi North 9.2 mph - N/A   Clear
4:54 PM 44.1 °F 40.1 °F 34.0 °F 68% 29.95 in 10.0 mi Variable 6.9 mph 21.9 mph N/A   Clear
5:54 PM 41.0 °F 35.2 °F 33.1 °F 73% 29.98 in 10.0 mi North 9.2 mph 17.3 mph N/A   Mostly Cloudy
6:54 PM 37.9 °F 28.9 °F 30.0 °F 73% 30.00 in 10.0 mi North 16.1 mph 25.3 mph N/A   Partly Cloudy
7:44 PM 37.4 °F 27.8 °F 28.4 °F 70% 30.02 in 10.0 mi North 17.3 mph 29.9 mph N/A   Overcast
7:54 PM 37.0 °F 26.4 °F 28.9 °F 73% 30.04 in 10.0 mi North 20.7 mph 32.2 mph N/A   Overcast
8:54 PM 35.1 °F 22.7 °F 26.1 °F 70% 30.04 in 10.0 mi North 25.3 mph 36.8 mph N/A   Overcast
9:54 PM 33.1 °F 19.1 °F 25.0 °F 72% 30.06 in 10.0 mi North 29.9 mph 39.1 mph N/A   Overcast
10:54 PM 32.0 °F 20.1 °F 24.1 °F 73% 30.09 in 10.0 mi North 19.6 mph 35.7 mph N/A   Overcast
11:54 PM 30.9 °F 19.8 °F 21.9 °F 69% 30.11 in 10.0 mi NNW 16.1 mph 31.1 mph N/A   Overcast